User: anonymous   Login
Location: Unspecified
(0.0000°N, 0.0000°E)
Time: 10:34:16
(UTC+00:00)
Language:

USA 215 - Orbit

View from above orbital plane
View from above orbital plane
View from above satellite
View from above satellite

Ground track
Ground track

The orbit data is extracted from the following two-line orbital elements,

1 37162U 10046A   18229.97147405 0.00000000  00000-0  00000-0 0    02
2 37162 123.0063  59.9370 0005000  86.9524 273.0476 13.41407063    06
Epoch (UTC): 17 August 2018 23:18:55
Eccentricity: 0.0005000
inclination: 123.0063°
perigee height: 1100 km
apogee height: 1108 km
right ascension of ascending node: 59.9370°
argument of perigee: 86.9524°
revolutions per day: 13.41407063
mean anomaly at epoch: 273.0476°
orbit number at epoch: 0

The dashed part of the orbit path shows where the satellite is in the earth's shadow,  

DLR